sat.trackr.live / text

‹ back to catalog

YAOGAN-36 05A

NORAD 57452 · 2023-106A

PAYLOAD ACTIVE UNKNOWN

§ Identity

Operator
Country
PRC
Launch date
2023-07-26
Launch site
XICLF
Launch vehicle
Mass (kg)
RCS (m²)

External: N2YO · Heavens-Above · Gunter

§ Orbital elements

Epoch: 2026-05-25T04:49:09.788736Z

Period
94.54 min
Inclination
35.0041°
Eccentricity
0.0002010
Mean motion
15.23129385 rev/d
Perigee alt
495.0 km
Apogee alt
497.8 km
Semi-major
6,874.5 km
B*
3.1505e-4
RAAN
202.2358°
Arg perigee
210.2709°
Mean anomaly
149.7890°
Rev number
15,764

§ Raw data

YAOGAN-36 05A1 57452U 23106A   26145.20080774  .00007589  00000+0  31505-3 0  99962 57452  35.0041 202.2358 0002010 210.2709 149.7890 15.23129385157644

JSON: /api/v1/satellites/57452 · /tle

For live sub-satellite position, see the globe view (requires WebGL).

§ Visibility from observer

Set your observer location to see the next 7 days of passes ≥ 10°. The values pass through the URL so the page stays shareable.

No JS? Fill the form by hand. The geolocation button needs JavaScript.